The Dilly Family's Weather Page
McMurray, PA 15317   Weather
Using a La Crosse Technology Model 2315 Weather Station

  Local Radar

Local Radar

  Graphs, Details
Detailed Weather
Detailed Reports
Mobile Version of This Page
Brief Version of This Page
  Maps
Temperature
Heat Index
Windchill
Humidity
Radar
Dew Point
Wind
Visibility
Visible Satellite
Satellite
Fronts
Snow Depth
Jet Stream
Flight Rules
  Forecast Maps
Temperature Forecast
Maximum Temperature Forecast
Minimum Temperature Forecast
Dewpoint Forecast
Prevalent Weather
12Hr Probability of Precip.
Sky Cover
  Health Maps
UV Forecast
Air Quality
Peak Air Quality Index
  Weather Station
La Crosse Technology
 
 
Weather Underground PWS KPAMCMUR4
KPAMCMUR4 Dashboard
  Current Conditions [Select Refresh to Update]

Updated: 11:04am on 10/30/14

Currently:
45.1°

Clear
Clear

High: 45.1° 
(11:04am) 
Low: 36.8° 
(8:09am)
Wind: 0 mph from the SSW
Gust: 0 mph
Today's High Wind: 0 mph (6:18am)
Humidity: 81%
Pressure: 30.06 in  (Steady) 
Pressure Rate: -0.003 in/hr
Dew Point: 39.6°
Wind Chill: 45.1°
Heat Index (feels like): 49.5°
Comfort Level: Cool
Temperature Rate:  3.08°/hr
 
  5 Day Forecast
 
Thu Fri Sat Sun Mon
Clear Clear Clear Clear Clear
Partly Cloudy Rain Rain Partly Cloudy Partly Cloudy
54° 52° 48° 46° 59°
37° 36° 30° 30° 37°

  Records and Normals
 
Temperature Forecast Normal Record
High 54° 59° 73°
(1989)
Low 37° 36° 22°
(1988)
 
  Almanac
Sunrise:  
7:49am
Moonrise: 
1:50pm

Moon Phase:
42%

Sunset: 
6:21pm
Moonset:  
---
 
  Weather Underground     KPAMCMUR4

  Weather Advisories
No Warning
Full Advisory Text...
  Weather Map

 
  Web Cams   (Northerly View)
Northerly view toward Pittsburgh.
 
  Rainfall Totals
Hourly Rain 0.00 in
Daily Rain 0.00 in
Monthly Rain 2.81 in
Yearly Rain 29.75 in
Normal Rain, month to date       0.00 in
Normal Rain, year to date 0.00 in
 
 
Weather.com
WeatherUnderground NorthEast Fronts
WeatherUnderground NorthEast Radar
WeatherBug NorthEast Radar
WeatherBug, Peters HS
WPXI Weather
KDKA Weather
WTEA Weather
Intellacast Canonsburg
AccuWeather
Yahoo, McMurray
Twitter, Pittsburgh
Fox53 Radar
Time and Date, Pittsburgh
NOAA Weather Pitt
FilghtStats PIT
NWS Thompsonville
USGS Tides and Temperature at Manasquan
NWS US Radar - Loop
  Local Weather Exchange Network
Station ID

City 
(Click for Map Location)

Neighborhood 
(Click for History)
Last Update (Date & Time)

Temperature
 (°)

Dew
Point (°)
Humidity 
(%)
Wind 
(mph)
from the Wind Gust 
(mph) 
Pressure (in) Hourly
Rain (in)
KPACANON4 Canonsburg Morgan's Point 10/30 10:57:34 47.3 42.0 81 0 SSW 0 29.84 0.00
KPACANON5 Canonsburg Canonsburg 10/30 10:59:57 46.9 41.0 80 0 WNW 2 30.11 0.00
KPAMCMUR4 McMurray Thompsonville-McMurray 10/30 10:55:07 44.4 39.0 82 0 SW 0 30.06 0.00
KPACANON6 Canonsburg Sunset Acres, McMurray PA KPACANON6 10/30 10:54:11 47.1 41.0 79 0 WNW 0 30.07 0.00
KPAMCMUR3 McMurray St. Benedict the Abbot 10/30 10:59:49 46.8 44.0 89 7 SSW 7 30.07 0.00
KPABRIDG2 Bridgeville Hunting Ridge 10/30 10:45:05 44.6 38.0 79 0 East 0 28.91 0.00
KPAEIGHT3 Eighty Four Nottingham Twp. 10/30 10:59:59 45.7 38.0 74 1 NNE 1 30.18 0.00
KPAVENET5 Venetia Willamar 10/30 10:51:36 47.5 39.0 71 2 SSE 0 30.01 0.00
KPAVENET3 Venetia Bower Hill Rd 10/30 10:59:57 48.8 44.0 83 0 South 2 30.11 0.00
KPABETHE4 Bethel Park Bethel Park, PA - Terrasurv 10/30 10:55:40 45.9 40.0 79 2 WSW 0 30.11 0.00
KPABETHE3 Bethel Park Bethel Park 10/30 10:55:16 51.2 43.0 73 3 WNW 6 30.10 0.00
KPAWASHI5 Washington Cameron Estates/South Strabane 10/30 10:54:04 43.6 38.0 79 4 SW 0 30.11 0.00
KPAVENET4 Venetia Sugar Run Road 10/30 10:55:06 45.6 34.0 64 4 North 8 29.90 0.00
KPAMTLEB2 Mount Lebanon Mount Lebanon 10/30 10:59:55 47.3 24.0 39 4 NE 0 30.08 0.00
KPASCOTT2 Scott Township Scott Township Neighborhood Weather 10/30 10:59:49 48.6 35.0 60 0 ESE 3 30.13 0.00
KPAPITTS29 Pittsburgh Carrick/Pittsburgh 10/30 10:58:53 50.0 41.0 70 3 NW 6 30.09 0.00
KPAPITTS58 Pittsburgh Robinson Township 10/30 10:59:32 47.5 41.0 79 0 SE 0 30.04 0.00
KPAIMPER5 Imperial Imperial 10/30 10:59:55 47.2 41.0 79 0 West 5 30.08 0.00
KPAIMPER1 Imperial Imperial Neighborhood Weather 10/30 10:56:34 45.7 43.0 90 0 WNW 0 30.10 0.00
KPAIMPER4 Imperial Walden Woods 10/30 10:59:52 52.5 42.0 67 0 North 2 29.76 0.00
KPAPITTS46 Pittsburgh Baldwin 10/30 09:58:11 42.8 38.0 82 0 North 0 30.13 0.00
KPAPITTS62 Pittsburgh Crafton Heights 10/30 10:59:56 44.9 38.0 77 2 WNW 0 30.04 0.00
KPACLAIR2 Clairton Jefferson Hills 10/30 10:59:55 48.9 39.0 68 0 SW 2 30.14 0.00
KPAWASHI2 Washington South Franklin, Alamae Lakes 10/30 10:55:18 46.2 41.0 81 1 WNW 3 30.10 0.00
KPABURGS2 Burgsttown Pa Burgettstown PA 10/30 10:49:27 50.9 45.0 81 0 WSW 0 30.02 0.00
KPAMUNHA2 Munhall Lower Gates Manor 10/30 10:52:02 48.2 39.0 70 1 WSW 0 30.08 0.00
KPAPITTS56 Pittsburgh Carnegie Mellon University 10/30 10:49:51 48.7 40.0 71 2 WSW 7 --- 0.00
KPAPITTS75 Pittsburgh Shadyside 10/30 10:51:51 49.1 41.0 74 2 NNW 3 30.10 0.00
KPAPITTS33 Pittsburgh Squirrel Hill 10/30 10:50:00 48.5 35.0 58 0 North 0 29.29 0.00
KPAPITTS54 Pittsburgh Bloomfield 10/30 10:59:55 52.5 42.0 67 1 WSW 5 30.21 0.00
KPAMOONT2 Moon Township Moon Township 10/30 10:50:24 47.5 42.0 80 0 ESE 0 30.13 0.00
KAFJ Washington Official Station 10/30 10:55:00 46.0 37.0 71 6 West --- 30.12 ---
KAGC Pittsburgh Allegheny Co. Official Station 10/30 10:53:00 46.0 36.0 68 6 WSW --- 30.12 ---
KPIT Pittsburgh Official Station 10/30 10:51:00 46.0 39.0 76 6 WNW --- 30.14 ---
KHLG Wheeling Official Station 10/30 10:53:00 44.0 37.0 76 4 West --- 30.14 ---
  Full Advisory Text
No Warnings

10/30/14 4+ 11:04am   - http://weatherstation.wunderground.com/weatherstation/updateweatherstation.php?action=updateraw&ID=KPASMITH2&PASSWORD=&dateutc=2010-07-05+22%3A09%3A33&winddir=SSW&tempf=45.1&windspeedmph=0&humidity=81&dewptf=39.6&baromin=30.06&rainin=0.00&dailyrainin=0.00

Ambient Weather and Weather Underground
 Never base important decisions on this or any weather information obtained from the Internet
Updated Automatically by Ambient Weather's Virtual Weather Station  V14.00

Template updated: 5:35 PM 6/9/2011